This is the latest recevied weather packets stored in our database for station/object OK2ILA-10. If no packets are shown the sender has not sent any weather packets the latest 10 day(s).
| Time | Temp. | Humidity | Pressure | Rain* | Wind** | Luminosity | Snow |
|---|---|---|---|---|---|---|---|
| 1788165105 | 21.67° C | 56% | 1016.3 hPa | - | - | - | - |
| 1788164510 | 21.67° C | 56% | 1016.3 hPa | - | - | - | - |
| 1788164505 | 21.67° C | 56% | 1016.3 hPa | - | - | - | - |
| 1788163909 | 21.67° C | 56% | 1016.4 hPa | - | - | - | - |
| 1788163905 | 21.67° C | 56% | 1016.4 hPa | - | - | - | - |
| 1788163309 | 22.22° C | 56% | 1016.3 hPa | - | - | - | - |
| 1788163305 | 22.22° C | 56% | 1016.3 hPa | - | - | - | - |
| 1788162709 | 22.22° C | 56% | 1016.1 hPa | - | - | - | - |
| 1788162705 | 22.22° C | 56% | 1016.1 hPa | - | - | - | - |
| 1788162109 | 22.22° C | 55% | 1016 hPa | - | - | - | - |
| 1788162105 | 22.22° C | 55% | 1016 hPa | - | - | - | - |
| 1788161509 | 22.78° C | 55% | 1016 hPa | - | - | - | - |
| 1788161504 | 22.78° C | 55% | 1016 hPa | - | - | - | - |
| 1788160909 | 21.11° C | 63% | 1015.9 hPa | - | - | - | - |
| 1788160904 | 21.11° C | 63% | 1015.9 hPa | - | - | - | - |
| 1788160309 | 20° C | 65% | 1015.9 hPa | - | - | - | - |
| 1788160304 | 20° C | 65% | 1015.9 hPa | - | - | - | - |
| 1788159704 | 20° C | 69% | 1016 hPa | - | - | - | - |
| 1788159116 | 19.44° C | 73% | 1016.1 hPa | - | - | - | - |
| 1788159104 | 19.44° C | 73% | 1016.1 hPa | - | - | - | - |
| 1788158509 | 18.89° C | 74% | 1016.4 hPa | - | - | - | - |
| 1788158503 | 18.89° C | 74% | 1016.4 hPa | - | - | - | - |
| 1788157903 | 18.89° C | 74% | 1016.5 hPa | - | - | - | - |
| 1788157303 | 18.89° C | 73% | 1016.4 hPa | - | - | - | - |
| 1788156703 | 18.89° C | 72% | 1016.5 hPa | - | - | - | - |
* Rain since midnight (hover to see other rain measurements)
** Current wind speed in m/s (hover to see current wind gust speed)